Zapata, TX

6:28 AM CST on January 20, 2017 (GMT -0600)
Zapata

Weather History for KAPY - November, 2012

Change the Weather History Date:

Sunday, November 25, 2012

  Actual Average (KLRD) Record (KLRD)
Temperature  
Mean Temperature 63 °F -  
Max Temperature 76 °F 70 °F 99 °F (1942)
Min Temperature 50 °F 52 °F 27 °F (1937)
Degree Days  
Heating Degree Days 2    
Growing Degree Days 13 (Base 50)    
Moisture  
Dew Point 56 °F    
Average Humidity 79    
Maximum Humidity 99    
Minimum Humidity 57    
Precipitation  
Precipitation 0.00 in - - ()
Sea Level Pressure  
Sea Level Pressure 30.02 in    
Wind  
Wind Speed 4 mph (SE)    
Max Wind Speed 12 mph    
Max Gust Speed 18 mph    
Visibility 10 miles    
Events      
Averages and records for this station are not official NWS values.
T = Trace of Precipitation, MM = Missing Value Source: NWS Daily Summary

Daily Weather History Graph

Daily Weather History Graph

Search for Another Location

Airport or City:

Trip Planner

Search our weather history database for the weather conditions in past years. The results will help you decide how hot, cold, wet, or windy it might be!

Date:

Astronomy

Nov. 25, 2012 Rise Set
Actual Time 7:04 AM CST 5:43 PM CST
Civil Twilight 6:39 AM CST 6:08 PM CST
Nautical Twilight 6:11 AM CST 6:36 PM CST
Astronomical Twilight 5:43 AM CST 7:04 PM CST
Moon 3:52 PM CST (11/25) 4:30 AM CST (11/25)
Length of Visible Light 11h 28m
Length of Day
10h 38m
Waxing Gibbous, 93% of the Moon is Illuminated
Nov 25
Waxing Gibbous
Nov 28
Full
Dec 6
Last Quarter
Dec 13
New
Dec 19
First Quarter

Hourly Weather History & Observations

Time (CST) Temp. Dew Point Humidity Pressure Visibility Wind Dir Wind Speed Gust Speed Precip Events Conditions
12:15 AM 55.0 °F 47.8 °F 77% 30.16 in 10.0 mi SE 4.6 mph - N/A   Clear
12:55 AM 54.9 °F 48.7 °F 80% 30.15 in 10.0 mi Calm Calm - N/A   Clear
1:15 AM 54.3 °F 49.1 °F 83% 30.14 in 10.0 mi Calm Calm - N/A   Clear
1:35 AM 54.1 °F 49.1 °F 83% 30.13 in 10.0 mi Calm Calm - N/A   Clear
1:55 AM 53.2 °F 49.1 °F 86% 30.13 in 10.0 mi Calm Calm - N/A   Clear
2:35 AM 53.4 °F 49.1 °F 85% 30.11 in 10.0 mi ESE 3.5 mph - N/A   Clear
2:55 AM 52.9 °F 49.1 °F 87% 30.10 in 10.0 mi East 3.5 mph - N/A   Clear
3:15 AM 52.5 °F 49.1 °F 88% 30.09 in 10.0 mi East 3.5 mph - N/A   Clear
3:35 AM 52.2 °F 49.5 °F 91% 30.09 in 10.0 mi ESE 3.5 mph - N/A   Clear
3:55 AM 52.3 °F 49.5 °F 90% 30.09 in 10.0 mi ESE 3.5 mph - N/A   Clear
4:15 AM 52.2 °F 49.5 °F 91% 30.09 in 10.0 mi East 3.5 mph - N/A   Clear
4:35 AM 52.3 °F 49.6 °F 91% 30.08 in 10.0 mi Calm Calm - N/A   Clear
4:55 AM 52.0 °F 49.5 °F 91% 30.08 in 10.0 mi Calm Calm - N/A   Clear
5:15 AM 51.8 °F 49.5 °F 92% 30.08 in 10.0 mi Calm Calm - N/A   Clear
5:35 AM 50.9 °F 50.0 °F 97% 30.08 in 10.0 mi Calm Calm - N/A   Clear
5:55 AM 51.1 °F 50.9 °F 99% 30.08 in 10.0 mi Calm Calm - N/A   Scattered Clouds
6:35 AM 50.9 °F 50.4 °F 98% 30.08 in 10.0 mi Calm Calm - N/A   Clear
7:15 AM 51.8 °F 50.9 °F 97% 30.08 in 10.0 mi Calm Calm - N/A   Clear
8:15 AM 55.9 °F 50.9 °F 83% 30.10 in 10.0 mi SSE 4.6 mph - N/A   Scattered Clouds
8:55 AM 59.0 °F 51.6 °F 76% 30.10 in 10.0 mi SE 3.5 mph - N/A   Mostly Cloudy
9:55 AM 61.9 °F 52.2 °F 70% 30.10 in 10.0 mi SSE 5.8 mph - N/A   Overcast
10:35 AM 64.4 °F 53.4 °F 67% 30.10 in 10.0 mi SE 5.8 mph - N/A   Overcast
10:55 AM 65.7 °F 54.1 °F 66% 30.09 in 10.0 mi ESE 5.8 mph - N/A   Overcast
11:35 AM 68.0 °F 56.7 °F 67% 30.07 in 10.0 mi South 6.9 mph - N/A   Overcast
11:55 AM 70.7 °F 58.1 °F 64% 30.06 in 10.0 mi SSE 8.1 mph - N/A   Mostly Cloudy
12:15 PM 70.7 °F 58.5 °F 65% 30.04 in 10.0 mi SSE 10.4 mph 16.1 mph N/A   Mostly Cloudy
12:55 PM 73.6 °F 59.7 °F 62% 30.01 in 10.0 mi SE 10.4 mph - N/A   Mostly Cloudy
1:15 PM 73.0 °F 59.9 °F 63% 29.99 in 10.0 mi SE 11.5 mph 16.1 mph N/A   Scattered Clouds
1:35 PM 73.6 °F 59.7 °F 62% 29.98 in 10.0 mi SE 10.4 mph 18.4 mph N/A   Scattered Clouds
1:55 PM 74.8 °F 60.1 °F 60% 29.97 in 10.0 mi SSE 9.2 mph - N/A   Scattered Clouds
2:35 PM 75.6 °F 60.1 °F 59% 29.95 in 10.0 mi South 9.2 mph - N/A   Clear
2:55 PM 75.6 °F 59.5 °F 57% 29.94 in 10.0 mi SSE 8.1 mph - N/A   Clear
3:15 PM 76.1 °F 59.9 °F 57% 29.94 in 10.0 mi SSE 6.9 mph 16.1 mph N/A   Clear
3:55 PM 76.1 °F 60.1 °F 57% 29.93 in 10.0 mi SSE 6.9 mph - N/A   Clear
4:15 PM 75.9 °F 60.6 °F 59% 29.93 in 10.0 mi ESE 4.6 mph - N/A   Clear
4:35 PM 75.6 °F 59.9 °F 58% 29.93 in 10.0 mi SE 5.8 mph - N/A   Clear
5:55 PM 71.2 °F 60.4 °F 69% 29.93 in 10.0 mi SE 3.5 mph - N/A   Clear
6:15 PM 69.8 °F 60.8 °F 73% 29.93 in 10.0 mi SE 3.5 mph - N/A   Clear
6:35 PM 68.9 °F 60.8 °F 75% 29.93 in 10.0 mi ESE 3.5 mph - N/A   Clear
6:55 PM 68.0 °F 60.8 °F 78% 29.94 in 10.0 mi SE 3.5 mph - N/A   Clear
7:15 PM 67.1 °F 60.8 °F 80% 29.94 in 10.0 mi SE 3.5 mph - N/A   Clear
7:35 PM 66.2 °F 60.8 °F 83% 29.95 in 10.0 mi ESE 4.6 mph - N/A   Clear
7:55 PM 65.7 °F 61.0 °F 85% 29.96 in 10.0 mi ESE 3.5 mph - N/A   Clear
8:15 PM 65.5 °F 61.0 °F 85% 29.96 in 10.0 mi North - - N/A   Clear
8:55 PM 64.8 °F 61.0 °F 88% 29.96 in 10.0 mi ESE 3.5 mph - N/A   Clear
9:15 PM 64.4 °F 61.2 °F 89% 29.96 in 10.0 mi ESE 5.8 mph - N/A   Clear
9:35 PM 64.9 °F 61.3 °F 88% 29.96 in 10.0 mi SE 4.6 mph - N/A   Clear
9:55 PM 64.4 °F 61.2 °F 89% 29.96 in 10.0 mi SE 3.5 mph - N/A   Clear
10:15 PM 64.4 °F 61.7 °F 91% 29.96 in 10.0 mi ESE 4.6 mph - N/A   Clear
10:35 PM 65.7 °F 62.1 °F 88% 29.95 in 10.0 mi SE 6.9 mph - N/A   Clear
10:55 PM 66.2 °F 62.4 °F 88% 29.94 in 10.0 mi SE 6.9 mph - N/A   Clear
11:15 PM 65.8 °F 62.6 °F 89% 29.94 in 10.0 mi SE 5.8 mph - N/A   Clear
11:35 PM 65.3 °F 62.6 °F 91% 29.94 in 10.0 mi SE 5.8 mph - N/A   Clear
11:55 PM 64.8 °F 62.6 °F 93% 29.94 in 10.0 mi SE 5.8 mph - N/A   Clear